This demonstration page uses our WeatherBlox Daily Observations layout. Learn more.

Left ArrowRight Arrow

Hourly Observations for March 3, 2015

Temp ( °F °C ) Dew Point ( °F °C ) Humidity (%) Winds ( mph kmh ) Pressure ( in mb ) Visibility ( mi km ) Precip ( " mm )
12:16 am 00:16 Clear 25 -4 9 -13 50 50 ESE 7 11 30.33 1027 10 16 N/A
12:35 am 00:35 Clear 25 -4 9 -13 50 50 ESE 9 15 30.30 1026 10 16 N/A
12:56 am 00:56 Clear 25 -4 9 -13 50 50 ESE 7 11 30.30 1026 10 16 N/A
1:16 am 01:16 Clear 25 -4 9 -13 50 50 SE 5 7 30.30 1026 10 16 N/A
1:35 am 01:35 Clear 25 -4 9 -13 50 50 SSE 5 7 30.30 1026 10 16 N/A
1:56 am 01:56 Clear 25 -4 10 -12 54 54 SE 7 11 30.30 1026 10 16 N/A
2:16 am 02:16 Clear 25 -4 9 -13 50 50 SE 9 15 30.27 1025 10 16 N/A
2:35 am 02:35 Clear 25 -4 9 -13 50 50 ESE 7 11 30.27 1025 10 16 N/A
2:56 am 02:56 Clear 25 -4 9 -13 50 50 ESE 6 9 30.27 1025 10 16 N/A
3:16 am 03:16 Clear 25 -4 10 -12 54 54 SE 5 7 N/A 10 16 N/A
3:35 am 03:35 Clear 25 -4 10 -12 54 54 E 7 11 30.27 1025 10 16 N/A
3:56 am 03:56 Clear 25 -4 10 -12 54 54 SE 5 7 30.27 1025 10 16 N/A
4:16 am 04:16 Mostly Cloudy 25 -4 10 -12 54 54 ESE 9 15 30.24 1024 10 16 N/A
4:35 am 04:35 Mostly Cloudy 25 -4 10 -12 54 54 ESE 13 20 30.18 1022 10 16 N/A
4:56 am 04:56 Mostly Cloudy 27 -3 12 -11 54 54 SE 9 15 30.15 1021 7 11 N/A
5:16 am 05:16 Cloudy 27 -3 12 -11 54 54 ESE 9 15 30.15 1021 10 16 N/A
5:35 am 05:35 Cloudy 27 -3 12 -11 54 54 SE 7 11 30.18 1022 10 16 N/A
5:56 am 05:56 Cloudy 27 -3 12 -11 54 54 SE 7 11 30.15 1021 10 16 N/A
6:16 am 06:16 Cloudy 27 -3 12 -11 54 54 SSE 6 9 30.15 1021 10 16 N/A
6:35 am 06:35 Cloudy 27 -3 12 -11 54 54 SE 6 9 30.15 1021 10 16 N/A
6:56 am 06:56 Cloudy 27 -3 12 -11 54 54 SE 7 11 30.15 1021 10 16 N/A
7:16 am 07:16 Cloudy 28 -2 12 -11 51 51 SE 7 11 30.12 1020 10 16 N/A
7:35 am 07:35 Cloudy 28 -2 12 -11 51 51 SE 6 9 30.12 1020 10 16 N/A
7:56 am 07:56 Mostly Cloudy 28 -2 12 -11 51 51 SE 7 11 30.09 1019 10 16 N/A
8:15 am 08:15 Mostly Cloudy 28 -2 14 -10 55 55 SE 8 13 30.09 1019 10 16 N/A
8:35 am 08:35 Mostly Cloudy 28 -2 14 -10 55 55 SE 8 13 30.09 1019 7 11 N/A
8:56 am 08:56 Cloudy 28 -2 16 -9 59 59 SSE 10 17 30.06 1018 7 11 N/A
9:15 am 09:15 Mostly Cloudy 28 -2 16 -9 59 59 SSE 10 17 30.06 1018 7 11 N/A
9:35 am 09:35 Cloudy 30 -1 18 -8 59 59 SSE 15 24 30.00 1016 3 5 N/A
9:56 am 09:56 Cloudy 30 -1 19 -7 64 64 SSE 16 26 30.00 1016 4 6 N/A
10:15 am 10:15 Cloudy 30 -1 21 -6 69 69 SSE 15 24 29.97 1015 3 5 N/A
10:35 am 10:35 Cloudy 30 -1 23 -5 75 75 SSE 13 20 29.94 1014 5 8 N/A
10:56 am 10:56 Cloudy 30 -1 30 -1 100 100 S 13 20 29.94 1014 3 4 N/A
11:15 am 11:15 Cloudy 32 undefined 32 undefined 100 100 S 10 17 29.91 1013 1 2 N/A
11:35 am 11:35 Cloudy 32 undefined N/A N/A SSW 7 11 29.94 1014 2 3 N/A
11:56 am 11:56 Cloudy 32 undefined N/A N/A S 10 17 29.88 1012 4 6 N/A
12:15 pm 12:15 Cloudy 32 undefined N/A N/A S 10 17 29.88 1012 3 4 N/A
12:36 pm 12:36 Cloudy 34 1 N/A N/A S 12 19 29.83 1010 3 5 N/A
12:56 pm 12:56 Cloudy 34 1 N/A N/A S 14 22 29.83 1010 3 5 N/A
1:15 pm 13:15 Cloudy 34 1 N/A N/A S 12 19 29.80 1009 3 4 N/A
1:36 pm 13:36 Cloudy 34 1 N/A N/A S 12 19 29.80 1009 3 4 N/A
1:56 pm 13:56 Cloudy 34 1 N/A N/A SSW 9 15 29.80 1009 2 3 N/A
2:15 pm 14:15 Cloudy 36 2 N/A N/A SSW 8 13 29.80 1009 1 2 N/A
2:36 pm 14:36 Cloudy 36 2 N/A N/A SSW 10 17 29.77 1008 2 2 N/A
2:56 pm 14:56 Cloudy 36 2 N/A N/A SSW 9 15 29.77 1008 2 2 N/A
3:36 pm 15:36 Cloudy 37 3 N/A N/A SSW 8 13 29.77 1008 1 2 N/A
3:56 pm 15:56 Cloudy 39 4 N/A N/A SW 10 17 29.77 1008 1 1 N/A
4:15 pm 16:15 Cloudy 41 5 N/A N/A WSW 14 22 29.77 1008 2 3 N/A
4:36 pm 16:36 Cloudy 43 6 N/A N/A WSW 17 28 29.77 1008 3 4 N/A
4:55 pm 16:55 Cloudy 41 5 N/A N/A WSW 15 24 29.77 1008 3 5 N/A
5:15 pm 17:15 Cloudy 41 5 N/A N/A WSW 17 28 29.80 1009 3 5 N/A
5:36 pm 17:36 Cloudy 39 4 N/A N/A WSW 15 24 29.80 1009 4 6 N/A
5:55 pm 17:55 Cloudy 39 4 N/A N/A W 15 24 29.80 1009 5 8 N/A
6:15 pm 18:15 Cloudy 39 4 N/A N/A W 12 19 29.80 1009 7 11 N/A
6:36 pm 18:36 Cloudy 39 4 N/A N/A W 14 22 29.80 1009 10 16 N/A
6:55 pm 18:55 Cloudy 39 4 N/A N/A W 16 26 29.83 1010 7 11 N/A
7:15 pm 19:15 Cloudy 39 4 N/A N/A W 17 28 29.83 1010 7 11 N/A
7:36 pm 19:36 Cloudy 37 3 N/A N/A W 13 20 29.85 1011 7 11 N/A
7:55 pm 19:55 Cloudy 37 3 N/A N/A W 13 20 29.85 1011 7 11 N/A
8:15 pm 20:15 Cloudy 37 3 N/A N/A W 12 19 29.88 1012 5 8 N/A
8:36 pm 20:36 Cloudy 36 2 N/A N/A WSW 5 7 29.85 1011 5 8 N/A
8:55 pm 20:55 Cloudy 37 3 N/A N/A W 8 13 29.85 1011 5 8 N/A
9:16 pm 21:16 Cloudy 37 3 N/A N/A W 8 13 29.85 1011 5 8 N/A
9:36 pm 21:36 Cloudy 36 2 N/A N/A W 10 17 29.88 1012 5 8 N/A
9:55 pm 21:55 Cloudy 36 2 N/A N/A WNW 9 15 29.88 1012 4 6 N/A
10:16 pm 22:16 Cloudy 36 2 N/A N/A W 10 17 29.88 1012 5 8 N/A
10:36 pm 22:36 Cloudy 36 2 N/A N/A W 9 15 29.91 1013 4 6 N/A
10:55 pm 22:55 Cloudy 36 2 N/A N/A W 9 15 29.91 1013 3 5 N/A
11:16 pm 23:16 Cloudy 36 2 N/A N/A W 8 13 29.91 1013 4 6 N/A
11:35 pm 23:35 Cloudy 36 2 N/A N/A W 8 13 29.91 1013 5 8 N/A
11:55 pm 23:55 Cloudy 36 2 N/A N/A W 8 13 29.91 1013 5 8 N/A

Powered by AerisWeather